Time,TemperatureF,DewpointF,PressureIn,WindDirection,WindDirectionDegrees,WindSpeedMPH,WindSpeedGustMPH,Humidity,HourlyPrecipIn,Conditions,Clouds,dailyrainin,SolarRadiationWatts/m^2,SoftwareType,DateUTC
2013-03-04 00:21:00,32.0,31.0,30.03,NNE,19,3.0,4.0,96,-99.99,,,-99.99,0.000000,,2013-03-04 08:21:00,
2013-03-04 00:31:00,32.0,31.0,30.03,NNE,19,3.0,4.0,96,-99.99,,,-99.99,0.000000,,2013-03-04 08:31:00,
2013-03-04 00:40:00,30.0,29.0,30.04,NNE,20,3.0,4.0,98,-99.99,,,-99.99,0.000000,,2013-03-04 08:40:00,
2013-03-04 01:21:00,30.0,29.0,30.04,NNE,20,3.0,4.0,98,-99.99,,,-99.99,0.000000,,2013-03-04 09:21:00,
2013-03-04 01:31:00,30.0,29.0,30.04,NNE,20,3.0,4.0,98,-99.99,,,-99.99,0.000000,,2013-03-04 09:31:00,
2013-03-04 01:40:00,29.0,28.0,30.06,South,179,3.0,5.0,98,-99.99,,,-99.99,0.000000,,2013-03-04 09:40:00,
2013-03-04 02:21:00,29.0,28.0,30.06,South,179,3.0,5.0,98,-99.99,,,-99.99,0.000000,,2013-03-04 10:21:00,
2013-03-04 02:31:00,29.0,28.0,30.06,South,179,3.0,5.0,98,-99.99,,,-99.99,0.000000,,2013-03-04 10:31:00,
2013-03-04 02:40:00,30.0,30.0,30.07,SSE,155,0.0,1.0,98,-99.99,,,-99.99,0.000000,,2013-03-04 10:40:00,
2013-03-04 03:21:00,30.0,30.0,30.07,SSE,155,0.0,1.0,98,-99.99,,,-99.99,0.000000,,2013-03-04 11:21:00,
2013-03-04 03:31:00,30.0,30.0,30.07,SSE,155,0.0,1.0,98,-99.99,,,-99.99,0.000000,,2013-03-04 11:31:00,
2013-03-04 03:40:00,30.0,29.0,30.06,SSE,165,3.0,4.0,98,-99.99,,,-99.99,0.000000,,2013-03-04 11:40:00,
2013-03-04 04:22:00,30.0,29.0,30.06,SSE,165,3.0,4.0,98,-99.99,,,-99.99,0.000000,,2013-03-04 12:22:00,
2013-03-04 04:32:00,30.0,29.0,30.06,SSE,165,3.0,4.0,98,-99.99,,,-99.99,0.000000,,2013-03-04 12:32:00,
2013-03-04 04:40:00,30.0,30.0,30.07,North,356,3.0,3.0,99,-99.99,,,-99.99,0.000000,,2013-03-04 12:40:00,
2013-03-04 05:21:00,30.0,30.0,30.07,North,356,3.0,3.0,99,-99.99,,,-99.99,0.000000,,2013-03-04 13:21:00,
2013-03-04 05:32:00,30.0,30.0,30.07,North,356,3.0,3.0,99,-99.99,,,-99.99,0.000000,,2013-03-04 13:32:00,
2013-03-04 06:22:00,26.0,26.0,30.07,NE,42,1.0,2.0,98,-99.99,,,-99.99,0.000000,,2013-03-04 14:22:00,
2013-03-04 06:32:00,26.0,26.0,30.07,NE,42,1.0,2.0,98,-99.99,,,-99.99,0.000000,,2013-03-04 14:32:00,
2013-03-04 06:40:00,24.0,23.0,30.08,SE,141,2.0,2.0,97,-99.99,,,-99.99,10.000000,,2013-03-04 14:40:00,
2013-03-04 07:21:00,24.0,23.0,30.08,SE,141,2.0,2.0,97,-99.99,,,-99.99,10.000000,,2013-03-04 15:21:00,
2013-03-04 07:31:00,24.0,23.0,30.08,SE,141,2.0,2.0,97,-99.99,,,-99.99,10.000000,,2013-03-04 15:31:00,
2013-03-04 08:21:00,28.0,27.0,30.09,SSW,204,2.0,4.0,98,-99.99,,,-99.99,140.000000,,2013-03-04 16:21:00,
2013-03-04 08:31:00,28.0,27.0,30.09,SSW,204,2.0,4.0,98,-99.99,,,-99.99,140.000000,,2013-03-04 16:31:00,
2013-03-04 08:40:00,33.0,32.0,30.09,SW,216,1.0,2.0,98,-99.99,,,-99.99,370.000000,,2013-03-04 16:40:00,
2013-03-04 09:22:00,33.0,32.0,30.09,SW,216,1.0,2.0,98,-99.99,,,-99.99,370.000000,,2013-03-04 17:22:00,
2013-03-04 09:31:00,33.0,32.0,30.09,SW,216,1.0,2.0,98,-99.99,,,-99.99,370.000000,,2013-03-04 17:31:00,
2013-03-04 09:40:00,40.0,39.0,30.08,NE,45,1.0,3.0,96,-99.99,,,-99.99,560.000000,,2013-03-04 17:40:00,
2013-03-04 10:21:00,40.0,39.0,30.08,NE,45,1.0,3.0,96,-99.99,,,-99.99,560.000000,,2013-03-04 18:21:00,
2013-03-04 10:32:00,40.0,39.0,30.08,NE,45,1.0,3.0,96,-99.99,,,-99.99,560.000000,,2013-03-04 18:32:00,
2013-03-04 10:40:00,44.0,38.0,30.08,North,349,2.0,4.0,79,-99.99,,,-99.99,700.000000,,2013-03-04 18:40:00,
2013-03-04 11:21:00,44.0,38.0,30.08,North,349,2.0,4.0,79,-99.99,,,-99.99,700.000000,,2013-03-04 19:21:00,
2013-03-04 11:32:00,44.0,38.0,30.08,North,349,2.0,4.0,79,-99.99,,,-99.99,700.000000,,2013-03-04 19:32:00,
2013-03-04 11:40:00,50.0,33.0,30.08,North,7,1.0,3.0,53,-99.99,,,-99.99,770.000000,,2013-03-04 19:40:00,
2013-03-04 12:21:00,50.0,33.0,30.08,North,7,1.0,3.0,53,-99.99,,,-99.99,770.000000,,2013-03-04 20:21:00,
2013-03-04 12:32:00,50.0,33.0,30.08,North,7,1.0,3.0,53,-99.99,,,-99.99,770.000000,,2013-03-04 20:32:00,
2013-03-04 12:40:00,52.0,32.0,30.06,ENE,68,4.0,9.0,46,-99.99,,,-99.99,780.000000,,2013-03-04 20:40:00,
2013-03-04 13:21:00,52.0,32.0,30.06,ENE,68,4.0,9.0,46,-99.99,,,-99.99,780.000000,,2013-03-04 21:21:00,
2013-03-04 13:32:00,52.0,32.0,30.06,ENE,68,4.0,9.0,46,-99.99,,,-99.99,780.000000,,2013-03-04 21:32:00,
2013-03-04 13:40:00,54.0,29.0,30.04,West,280,4.0,9.0,38,-99.99,,,-99.99,710.000000,,2013-03-04 21:40:00,
2013-03-04 14:32:00,54.0,29.0,30.04,West,280,4.0,9.0,38,-99.99,,,-99.99,710.000000,,2013-03-04 22:32:00,
2013-03-04 14:40:00,58.0,29.0,30.03,ENE,68,3.0,5.0,33,-99.99,,,-99.99,590.000000,,2013-03-04 22:40:00,
2013-03-04 15:32:00,58.0,29.0,30.03,ENE,68,3.0,5.0,33,-99.99,,,-99.99,590.000000,,2013-03-04 23:32:00,
2013-03-04 15:40:00,59.0,28.0,30.02,NNW,340,3.0,6.0,31,-99.99,,,-99.99,420.000000,,2013-03-04 23:40:00,
2013-03-04 16:32:00,59.0,28.0,30.02,NNW,340,3.0,6.0,31,-99.99,,,-99.99,420.000000,,2013-03-05 00:32:00,
2013-03-04 16:40:00,58.0,28.0,30.00,NNE,18,2.0,5.0,32,-99.99,,,-99.99,210.000000,,2013-03-05 00:40:00,
2013-03-04 17:32:00,58.0,28.0,30.00,NNE,18,2.0,5.0,32,-99.99,,,-99.99,210.000000,,2013-03-05 01:32:00,
2013-03-04 17:40:00,48.0,31.0,29.98,WNW,290,6.0,7.0,52,-99.99,,,-99.99,20.000000,,2013-03-05 01:40:00,
2013-03-04 18:40:00,43.0,34.0,-100.00,North,356,6.0,7.0,69,-99.99,,,-99.99,0.000000,,2013-03-05 02:40:00,
2013-03-04 19:22:00,43.0,34.0,29.97,North,356,6.0,7.0,69,-99.99,,,-99.99,0.000000,,2013-03-05 03:22:00,
2013-03-04 19:32:00,43.0,34.0,-100.00,North,356,6.0,7.0,69,-99.99,,,-99.99,0.000000,,2013-03-05 03:32:00,
2013-03-04 19:40:00,45.0,34.0,-100.00,NNE,33,5.0,8.0,64,-99.99,,,-99.99,0.000000,,2013-03-05 03:40:00,
2013-03-04 20:21:00,45.0,34.0,29.98,NNE,33,5.0,8.0,64,-99.99,,,-99.99,0.000000,,2013-03-05 04:21:00,
2013-03-04 20:31:00,45.0,34.0,-100.00,NNE,33,5.0,8.0,64,-99.99,,,-99.99,0.000000,,2013-03-05 04:31:00,
2013-03-04 20:40:00,37.0,32.0,30.00,SSW,212,3.0,4.0,81,-99.99,,,-99.99,0.000000,,2013-03-05 04:40:00,
2013-03-04 21:22:00,37.0,32.0,30.00,SSW,212,3.0,4.0,81,-99.99,,,-99.99,0.000000,,2013-03-05 05:22:00,
2013-03-04 21:31:00,37.0,32.0,30.00,SSW,212,3.0,4.0,81,-99.99,,,-99.99,0.000000,,2013-03-05 05:31:00,
2013-03-04 22:22:00,33.0,28.0,30.00,NE,47,4.0,5.0,84,-99.99,,,-99.99,0.000000,,2013-03-05 06:22:00,
2013-03-04 22:40:00,33.0,29.0,30.00,West,280,2.0,4.0,85,-99.99,,,-99.99,0.000000,,2013-03-05 06:40:00,
2013-03-04 23:21:00,33.0,29.0,30.00,West,280,2.0,4.0,85,-99.99,,,-99.99,0.000000,,2013-03-05 07:21:00,
2013-03-04 23:31:00,33.0,29.0,30.00,West,280,2.0,4.0,85,-99.99,,,-99.99,0.000000,,2013-03-05 07:31:00,